Regional Weather Roundup
Issued by NWS Charleston, SC

Current Version | Previous Version | Graphics & Text | Print | Product List | Glossary On
Versions: 1 2 3 4 5 6 7 8 9 10 11 12 13 14 15 16 17 18 19 20 21 22 23 24 25 26 27 28 29 30 31 32 33 34 35 36 37 38 39 40 41 42 43 44 45 46 47 48 49 50
766 ASUS42 KCHS 032227 RWRCHS REGIONAL WEATHER ROUNDUP NATIONAL WEATHER SERVICE CHARLESTON SC 500 PM EST SAT DEC 03 2016 NOTE: "FAIR" INDICATES FEW OR NO CLOUDS BELOW 12,000 FEET WITH NO SIGNIFICANT WEATHER AND/OR OBSTRUCTIONS TO VISIBILITY. NOT ALL STATIONS ARE QUALITY CONTROLLED. USE DATA WITH CAUTION... ESPECIALLY DEWPOINT OBSERVATIONS. SCZ027-030-031-034>040-042>050-032300- ...SOUTHEAST SOUTH CAROLINA... CITY SKY/WX TMP DP RH WIND PRES REMARKS N CHARLESTON MOCLDY 56 36 47 NE5 30.22S WATERFRONT PRK N/A 58 42 55 VRB3 30.22S MOUNT PLEASANT FAIR 52 43 71 CALM 30.23S JOHNS ISLAND FAIR 52 41 66 CALM 30.23S PINOPOLIS N/A 54 37 54 VRB2 30.15R MONCKS CORNER FAIR 52 36 54 CALM 30.23F SUMMERVILLE FAIR 54 39 58 N3 30.24F BEAUFORT MCAS CLEAR 56 43 61 E5 30.21F BEAUFORT ARPT FAIR 54 43 66 E3 30.20F HILTON HEAD IS MOCLDY 55 43 62 NE5 30.21F WALTERBORO CLOUDY 55 41 58 CALM 30.23S ALLENDALE FAIR 55 39 54 CALM 30.22R ...SOUTHERN MIDLANDS AND PEE DEE... CITY SKY/WX TMP DP RH WIND PRES REMARKS GEORGETOWN NOT AVBL KINGSTREE FAIR 46 37 71 CALM 30.24S ORANGEBURG CLOUDY 52 36 54 NE3 30.24S BARNWELL NOT AVBL AIKEN CLOUDY 52 34 50 CALM 30.26S MANNING NOT AVBL COLUMBIA CLOUDY 54 33 45 CALM 30.23F SUMTER CLOUDY 51 35 54 CALM 30.22R FLORENCE PTCLDY 53 34 48 CALM 30.25R MYRTLE BEACH MOCLDY 52 32 46 N12 30.26R N MYRTLE BEACH CLOUDY 50 35 56 N3 30.23R $$ GAZ063-065-086>088-099>101-113>116-118-119-134>141-150-032300- ...SOUTHEAST GEORGIA... CITY SKY/WX TMP DP RH WIND PRES REMARKS SAVANNAH ARPT CLOUDY 58 38 47 E9 30.20F HUNTER AAF CLOUDY 57 44 63 E7 30.18F FORT STEWART CLOUDY 58 44 60 CALM 30.18S STATESBORO CLOUDY 58 44 58 CALM 30.20S SYLVANIA CLOUDY N/A N/A N/A NE5 30.22S CLAXTON FAIR 56 47 71 CALM 30.20R ...CSRA...CENTRAL AND FAR SOUTHEAST GEORGIA... CITY SKY/WX TMP DP RH WIND PRES REMARKS THOMSON CLOUDY 56 42 59 CALM 30.26F AUGUSTA-BUSH PTCLDY 56 35 45 CALM 30.23R AUGUSTA-DANIEL CLOUDY 56 33 42 N5 30.23R SWAINSBORO CLOUDY 57 36 44 NE3 30.21R VIDALIA CLOUDY 61 43 51 E5 30.19F EASTMAN CLOUDY 62 15 15 CALM 30.22R HAZLEHURST CLOUDY 61 39 44 CALM 30.18S ALMA CLOUDY 59 39 47 E3 30.18R WAYCROSS CLOUDY 62 46 56 E3 30.18S JESUP FAIR 59 48 67 E5 30.19S BAXLEY CLOUDY 59 43 55 CALM 30.18S BRUNSWICK CLOUDY 59 52 77 NE7 30.19S SAINT SIMONS CLEAR 62 48 60 NE12 30.18S $$ SCZ027-028-034-036>038-045-046-048>050-GAZ119-141-032300- ...LAKE AND SUPPLEMENTAL COASTAL OBSERVATIONS... STATION/POSITION TIME TEMP WIND PRES WAVE SWELL AIR SEA DIR/SP/G HT/PER HT/PER/DIR (UTC) (F) (DEG/KT/KT) (MB) (FT/S) (FT/S/D) WINYAH BAY 2130 51 340/ 3 1023.0S LAKE MURRAY 2220 52 CALM 1023.4 ACE BASIN NERRS 2145 56 50/ 1 1023.0S FORT PULASKI 2200 56 62 70/ 11/ 13 1022.8 SAPELO ISLAND 2200 59 40/ 7 1022.0 $$ ANZ835-935-AMZ111-154-330-350-352-354-370-450-454-472-032300- ...C-MAN AND BUOY OBSERVATIONS... STATION/POSITION TIME TEMP WIND PRES WAVE SWELL AIR SEA DIR/SP/G HT/PER HT/PER/DIR (UTC) (F) (DEG/KT/KT) (MB) (FT/S) (FT/S/D) BUOY 41004 2150 56 74 10/ 14/ 17 1022.8R 4/ 6 2/100/ 8 BUOY 41008 2150 62 65 60/ 16/ 17 1022.0R 3/ 6 2/140/ 9 FOLLY BEACH CMAN 2200 54 30/ 3/ 4 1024.0R CAPERS NEARSHORE 2208 53 62 70/ 6/ 8 1023.6R FRIPP NEARSHORE 2208 56 62 60/ 10/ 14 1022.6F STATION/POSITION TIME TEMP WIND PRES WAVE SWELL AIR SEA DIR/SP/G HT/PER HT/PER/DIR (UTC) (F) (DEG/KT/KT) (MB) (FT/S) (FT/S/D) 5E ST. MARYS GA 2200 66 N/A 3/ 5 FRYING PAN BUOY 2210 53 73 360/ 12/ 16 1023.1 BUOY 41025 2150 64 74 360/ 16/ 21 1022.4F 5/ 8 3/ 30/ 8 CAPE LOOKOUT NC 2200 50 360/ 8/ 9 1023.1R BUOY 41002 2150 63 74 360/ 16/ 19 1020.4R 6/ 7 3/360/ 7 BUOY 41010 NOT AVBL ST AUGUSTINE FL 2200 66 67 30/ 14/ 15 1021.1F $$

USA.gov is the U.S. government's official web portal to all federal, state and local government web resources and services.